• In Netherlands
  • List of Countries
  • For 7 days
  • Water Temperature
  • Satellite Maps
  • Weather Map
  • Weather Widgets
  • user-avatar
    Login

    Hourly Weather Barra

    Today, 30 March, Thursday

    Time Temperature Precipitation Wind Pressure Humidity
    00:00 +27°C° 0.5 mm 4 mps 744 mmHg 88%
    01:00 +27°C° 0.5 mm 4 mps 744 mmHg 89%
    02:00 +27°C° 0 mm 4 mps 744 mmHg 89%
    03:00 +27°C° 0 mm 4 mps 744 mmHg 89%
    04:00 +27°C° 0 mm 4 mps 744 mmHg 88%
    05:00 +27°C° 0 mm 3 mps 745 mmHg 89%
    06:00 +27°C° 0 mm 3 mps 745 mmHg 89%
    07:00 +27°C° 0 mm 3 mps 746 mmHg 90%
    08:00 +30°C° 0 mm 3 mps 746 mmHg 80%
    09:00 +33°C° 0 mm 3 mps 746 mmHg 70%
    10:00 +36°C° 0 mm 2 mps 746 mmHg 60%
    11:00 +37°C° 0 mm 3 mps 746 mmHg 53%
    12:00 +38°C° 0 mm 3 mps 746 mmHg 46%
    13:00 +40°C° 0 mm 4 mps 745 mmHg 39%
    14:00 +38°C° 0 mm 4 mps 745 mmHg 44%
    15:00 +38°C° 0 mm 4 mps 744 mmHg 49%
    16:00 +37°C° 0 mm 4 mps 744 mmHg 53%
    17:00 +34°C° 0.1 mm 4 mps 744 mmHg 65%
    18:00 +32°C° 0.1 mm 4 mps 745 mmHg 78%
    19:00 +29°C° 0.1 mm 3 mps 745 mmHg 90%
    20:00 +28°C° 0 mm 3 mps 745 mmHg 90%
    21:00 +28°C° 0 mm 3 mps 746 mmHg 90%
    22:00 +27°C° 0 mm 3 mps 746 mmHg 90%
    23:00 +27°C° 0 mm 3 mps 746 mmHg 87%

    Tomorrow, 31 March, Friday

    Time Temperature Precipitation Wind Pressure Humidity
    00:00 +27°C° 0 mm 2 mps 746 mmHg 84%
    01:00 +27°C° 0 mm 2 mps 746 mmHg 81%
    02:00 +27°C° 0 mm 2 mps 745 mmHg 80%
    03:00 +27°C° 0 mm 2 mps 745 mmHg 78%
    04:00 +27°C° 0 mm 1 mps 745 mmHg 77%
    05:00 +27°C° 0 mm 2 mps 746 mmHg 74%
    06:00 +27°C° 0 mm 2 mps 746 mmHg 71%
    07:00 +27°C° 0 mm 2 mps 746 mmHg 68%
    08:00 +28°C° 0 mm 3 mps 747 mmHg 60%
    09:00 +30°C° 0 mm 3 mps 747 mmHg 52%
    10:00 +33°C° 0 mm 3 mps 747 mmHg 44%
    11:00 +34°C° 0 mm 3 mps 747 mmHg 42%
    12:00 +36°C° 0 mm 3 mps 746 mmHg 40%
    13:00 +37°C° 0 mm 3 mps 746 mmHg 38%
    14:00 +36°C° 0 mm 3 mps 746 mmHg 42%
    15:00 +35°C° 0 mm 3 mps 745 mmHg 45%
    16:00 +34°C° 0 mm 3 mps 745 mmHg 49%
    17:00 +31°C° 0 mm 3 mps 745 mmHg 60%
    18:00 +28°C° 0 mm 2 mps 745 mmHg 71%
    19:00 +25°C° 0 mm 2 mps 746 mmHg 82%
    20:00 +25°C° 0 mm 2 mps 746 mmHg 84%
    21:00 +24°C° 0 mm 2 mps 747 mmHg 87%
    22:00 +24°C° 0 mm 2 mps 748 mmHg 89%
    23:00 +25°C° 0.1 mm 2 mps 747 mmHg 89%

    Day after tomorrow, 1 April, Saturday

    Time Temperature Precipitation Wind Pressure Humidity
    00:00 +25°C° 0.1 mm 2 mps 747 mmHg 90%
    01:00 +25°C° 0.1 mm 3 mps 747 mmHg 90%
    02:00 +25°C° 0 mm 3 mps 747 mmHg 92%
    03:00 +25°C° 0 mm 3 mps 747 mmHg 94%
    04:00 +25°C° 0 mm 3 mps 746 mmHg 95%
    05:00 +25°C° 0 mm 3 mps 747 mmHg 94%
    06:00 +25°C° 0 mm 3 mps 747 mmHg 93%
    07:00 +26°C° 0 mm 3 mps 747 mmHg 92%
    08:00 +27°C° 0 mm 3 mps 748 mmHg 86%
    09:00 +28°C° 0 mm 3 mps 748 mmHg 81%
    10:00 +29°C° 0 mm 4 mps 748 mmHg 76%
    11:00 +29°C° 0 mm 4 mps 748 mmHg 75%
    12:00 +29°C° 0 mm 4 mps 747 mmHg 75%
    13:00 +29°C° 0 mm 4 mps 747 mmHg 75%
    14:00 +29°C° 0 mm 4 mps 746 mmHg 74%
    15:00 +30°C° 0 mm 4 mps 746 mmHg 73%
    16:00 +30°C° 0 mm 4 mps 746 mmHg 72%
    17:00 +28°C° 0 mm 3 mps 746 mmHg 78%
    18:00 +27°C° 0 mm 3 mps 747 mmHg 83%
    19:00 +25°C° 0 mm 3 mps 747 mmHg 89%
    20:00 +24°C° 0 mm 3 mps 748 mmHg 90%
    21:00 +24°C° 0 mm 2 mps 748 mmHg 91%
    22:00 +23°C° 0 mm 2 mps 749 mmHg 92%
    23:00 +23°C° 0 mm 2 mps 748 mmHg 92%

    2 April, Sunday

    Time Temperature Precipitation Wind Pressure Humidity
    00:00 +22°C° 0 mm 3 mps 748 mmHg 91%
    01:00 +22°C° 0 mm 3 mps 748 mmHg 91%
    02:00 +21°C° 0 mm 3 mps 748 mmHg 90%
    03:00 +21°C° 0 mm 3 mps 748 mmHg 90%
    04:00 +21°C° 0 mm 3 mps 747 mmHg 89%
    05:00 +22°C° 0 mm 3 mps 748 mmHg 89%
    06:00 +22°C° 0 mm 3 mps 748 mmHg 89%
    07:00 +22°C° 0 mm 3 mps 749 mmHg 89%
    08:00 +25°C° 0 mm 4 mps 749 mmHg 80%
    09:00 +27°C° 0 mm 4 mps 749 mmHg 71%
    10:00 +28°C° 0 mm 5 mps 749 mmHg 63%
    11:00 +29°C° 0 mm 5 mps 749 mmHg 61%
    12:00 +30°C° 0 mm 5 mps 748 mmHg 59%
    13:00 +30°C° 0 mm 5 mps 748 mmHg 57%
    14:00 +30°C° 0 mm 5 mps 748 mmHg 58%
    15:00 +29°C° 0 mm 5 mps 748 mmHg 59%
    16:00 +29°C° 0 mm 5 mps 747 mmHg 60%
    17:00 +27°C° 0.1 mm 4 mps 748 mmHg 69%
    18:00 +25°C° 0.1 mm 4 mps 748 mmHg 79%
    19:00 +22°C° 0.1 mm 4 mps 749 mmHg 88%
    20:00 +22°C° 0.2 mm 4 mps 749 mmHg 90%
    21:00 +22°C° 0.2 mm 4 mps 750 mmHg 93%
    22:00 +22°C° 0.2 mm 4 mps 750 mmHg 95%
    23:00 +22°C° 0.3 mm 4 mps 750 mmHg 95%

    3 April, Monday

    Time Temperature Precipitation Wind Pressure Humidity
    00:00 +22°C° 0.3 mm 5 mps 750 mmHg 95%
    01:00 +22°C° 0.3 mm 5 mps 749 mmHg 95%
    02:00 +22°C° 0.2 mm 5 mps 749 mmHg 95%
    03:00 +22°C° 0.2 mm 5 mps 749 mmHg 95%
    04:00 +22°C° 0.2 mm 5 mps 749 mmHg 95%
    05:00 +22°C° 0.2 mm 5 mps 749 mmHg 95%
    06:00 +22°C° 0.2 mm 5 mps 749 mmHg 94%
    07:00 +22°C° 0.2 mm 5 mps 750 mmHg 93%
    08:00 +23°C° 0.4 mm 5 mps 750 mmHg 89%
    09:00 +25°C° 0.4 mm 5 mps 750 mmHg 85%
    10:00 +26°C° 0.4 mm 6 mps 750 mmHg 81%
    11:00 +27°C° 0.4 mm 6 mps 750 mmHg 78%
    12:00 +28°C° 0.4 mm 6 mps 749 mmHg 76%
    13:00 +28°C° 0.4 mm 6 mps 749 mmHg 73%
    14:00 +28°C° 0.4 mm 6 mps 748 mmHg 74%
    15:00 +28°C° 0.4 mm 6 mps 748 mmHg 75%
    16:00 +27°C° 0.4 mm 6 mps 748 mmHg 76%
    17:00 +26°C° 0.3 mm 6 mps 748 mmHg 82%
    18:00 +24°C° 0.3 mm 6 mps 749 mmHg 88%
    19:00 +23°C° 0.3 mm 6 mps 749 mmHg 94%
    20:00 +23°C° 0.6 mm 6 mps 750 mmHg 94%
    21:00 +23°C° 0.6 mm 6 mps 750 mmHg 94%
    22:00 +23°C° 0.6 mm 6 mps 750 mmHg 94%
    23:00 +23°C° 0.6 mm 6 mps 750 mmHg 95%

    4 April, Tuesday

    Time Temperature Precipitation Wind Pressure Humidity
    00:00 +22°C° 0.6 mm 6 mps 749 mmHg 95%
    01:00 +22°C° 0.6 mm 6 mps 749 mmHg 96%
    02:00 +22°C° 0.6 mm 6 mps 749 mmHg 96%
    03:00 +22°C° 0.6 mm 6 mps 749 mmHg 96%
    04:00 +22°C° 0.6 mm 6 mps 748 mmHg 96%
    05:00 +22°C° 0.6 mm 6 mps 749 mmHg 95%
    06:00 +22°C° 0.6 mm 6 mps 749 mmHg 95%
    07:00 +22°C° 0.6 mm 6 mps 750 mmHg 95%
    08:00 +23°C° 0.7 mm 6 mps 750 mmHg 93%
    09:00 +23°C° 0.7 mm 6 mps 750 mmHg 91%
    10:00 +24°C° 0.7 mm 6 mps 750 mmHg 89%
    11:00 +24°C° 0.7 mm 6 mps 750 mmHg 89%
    12:00 +24°C° 0.7 mm 6 mps 749 mmHg 88%
    13:00 +26°C° 0.7 mm 6 mps 748 mmHg 88%
    14:00 +26°C° 0.7 mm 6 mps 748 mmHg 87%
    15:00 +26°C° 0.7 mm 7 mps 748 mmHg 86%
    16:00 +26°C° 0.7 mm 7 mps 748 mmHg 86%
    17:00 +24°C° 0.6 mm 7 mps 748 mmHg 88%
    18:00 +24°C° 0.6 mm 7 mps 748 mmHg 90%
    19:00 +23°C° 0.6 mm 7 mps 749 mmHg 93%
    20:00 +23°C° 0.7 mm 7 mps 749 mmHg 93%
    21:00 +23°C° 0.7 mm 7 mps 749 mmHg 94%
    22:00 +23°C° 0.7 mm 7 mps 750 mmHg 94%
    23:00 +22°C° 0.6 mm 6 mps 749 mmHg 94%
    Show more